,,PA_Meas_PMT16A,,PR_Meas_QMR101_102,,RH_Meas_QMH101,,SR_Meas_QMS101,,TA_Meas_QMH101,,GenWind,,GenWind,
time,status,PA,status,PR,status,RH,status,SR,status,TA,status,DirAvg,status,SpdAvg,
2014-04-15, 06:38:04,VALID,918.059,VALID,0,VALID,96.7716,VALID,20.0915,VALID,18.5943,VALID,113,VALID,0.708203,
2014-04-15, 06:39:04,VALID,918.007,VALID,0,VALID,96.7869,VALID,22.3478,VALID,18.5929,VALID,119,VALID,1.26172,
2014-04-15, 06:40:04,VALID,918.011,VALID,0,VALID,96.7793,VALID,24.1743,VALID,18.6333,VALID,116,VALID,0.902734,
2014-04-15, 06:41:04,VALID,918.018,VALID,0,VALID,96.7793,VALID,25.6784,VALID,18.5943,VALID,111,VALID,0.996094,
2014-04-15, 06:42:04,VALID,917.983,VALID,0,VALID,96.7793,VALID,27.3975,VALID,18.5734,VALID,109,VALID,1.12422,
2014-04-15, 06:43:04,VALID,917.982,VALID,0,VALID,96.7716,VALID,29.224,VALID,18.6333,VALID,121,VALID,1.37852,
2014-04-15, 06:44:04,VALID,917.98,VALID,0,VALID,96.7945,VALID,38.6788,VALID,18.6528,VALID,108,VALID,1.21445,
2014-04-15, 06:45:04,VALID,918.003,VALID,0,VALID,96.7793,VALID,52.861,VALID,18.6528,VALID,111,VALID,1.11484,
2014-04-15, 06:46:04,VALID,917.995,VALID,0,VALID,96.7716,VALID,58.3405,VALID,18.7113,VALID,119,VALID,0.973828,
2014-04-15, 06:47:04,VALID,918.029,VALID,0,VALID,96.7869,VALID,62.4233,VALID,18.7113,VALID,136,VALID,1.09492,
2014-04-15, 06:48:04,VALID,918.067,VALID,0,VALID,96.764,VALID,62.2084,VALID,18.7308,VALID,138,VALID,0.833594,
2014-04-15, 06:49:04,VALID,918.089,VALID,0,VALID,96.7716,VALID,57.1587,VALID,18.7113,VALID,139,VALID,1.04453,
2014-04-15, 06:50:04,VALID,918.08,VALID,0,VALID,96.7793,VALID,66.721,VALID,18.7503,VALID,142,VALID,1.23477,
2014-04-15, 06:51:04,VALID,918.079,VALID,0,VALID,96.764,VALID,76.9279,VALID,18.7892,VALID,137,VALID,1.27734,
2014-04-15, 06:52:04,VALID,918.098,VALID,0,VALID,96.764,VALID,78.9692,VALID,18.8087,VALID,141,VALID,1.23086,
2014-04-15, 06:53:04,VALID,918.085,VALID,0,VALID,96.7564,VALID,82.9446,VALID,18.8463,VALID,142,VALID,0.865234,
2014-04-15, 06:54:04,VALID,918.12,VALID,0,VALID,96.764,VALID,88.8538,VALID,18.8658,VALID,142,VALID,0.726563,
2014-04-15, 06:55:04,VALID,918.122,VALID,0,VALID,96.764,VALID,83.1595,VALID,18.8449,VALID,142,VALID,1.0457,
2014-04-15, 06:56:04,VALID,918.148,VALID,0,VALID,96.7793,VALID,90.358,VALID,18.8853,VALID,144,VALID,0.969922,
2014-04-15, 06:57:04,VALID,918.17,VALID,0,VALID,96.7564,VALID,92.8292,VALID,18.9034,VALID,145,VALID,1.24805,
2014-04-15, 06:58:04,VALID,918.163,VALID,0,VALID,96.7411,VALID,78.432,VALID,18.9633,VALID,145,VALID,1.10508,
2014-04-15, 06:59:04,VALID,918.18,VALID,0,VALID,96.7564,VALID,66.6135,VALID,18.9619,VALID,144,VALID,1.17227,
2014-04-15, 07:00:04,VALID,918.149,VALID,0,VALID,96.7564,VALID,65.4317,VALID,18.9814,VALID,133,VALID,1.09687,
2014-04-15, 07:01:04,VALID,918.166,VALID,0,VALID,96.7564,VALID,48.7783,VALID,19.0203,VALID,129,VALID,0.925,
2014-04-15, 07:02:04,VALID,918.175,VALID,0,VALID,96.7564,VALID,38.5714,VALID,19.0413,VALID,136,VALID,0.609375,
2014-04-15, 07:03:04,VALID,918.151,VALID,0,VALID,96.7488,VALID,41.15,VALID,19.0608,VALID,136,VALID,1.1168,
2014-04-15, 07:04:04,VALID,918.158,VALID,0,VALID,96.7488,VALID,39.4309,VALID,19.0593,VALID,136,VALID,0.632813,
2014-04-15, 07:05:04,VALID,918.203,VALID,0,VALID,96.7335,VALID,35.2407,VALID,19.0593,VALID,139,VALID,0.828906,
2014-04-15, 07:06:04,VALID,918.214,VALID,0,VALID,96.7259,VALID,36.3151,VALID,19.0998,VALID,137,VALID,0.798047,
2014-04-15, 07:07:04,VALID,918.204,VALID,0,VALID,96.7335,VALID,37.7118,VALID,19.1178,VALID,137,VALID,0.849609,
2014-04-15, 07:08:04,VALID,918.27,VALID,0,VALID,96.7107,VALID,58.5554,VALID,19.1583,VALID,139,VALID,0.910156,
2014-04-15, 07:09:04,VALID,918.262,VALID,0,VALID,96.703,VALID,96.1598,VALID,19.1973,VALID,138,VALID,0.889063,
2014-04-15, 07:10:04,VALID,918.261,VALID,0,VALID,96.7107,VALID,117.111,VALID,19.2153,VALID,144,VALID,1.11328,
2014-04-15, 07:11:04,VALID,918.273,VALID,0,VALID,96.703,VALID,123.02,VALID,19.3128,VALID,144,VALID,0.735156,
2014-04-15, 07:12:04,VALID,918.282,VALID,0,VALID,96.6954,VALID,125.491,VALID,19.3923,VALID,144,VALID,0.725781,
2014-04-15, 07:13:04,VALID,918.307,VALID,0,VALID,96.6802,VALID,128.714,VALID,19.4298,VALID,144,VALID,0.961328,
2014-04-15, 07:14:04,VALID,918.337,VALID,0,VALID,96.6573,VALID,131.938,VALID,19.5288,VALID,136,VALID,0.967188,
2014-04-15, 07:15:04,VALID,918.357,VALID,0,VALID,96.6344,VALID,135.268,VALID,19.6248,VALID,139,VALID,0.611328,
2014-04-15, 07:16:04,VALID,918.382,VALID,0,VALID,96.5963,VALID,138.062,VALID,19.7028,VALID,135,VALID,0.749219,
2014-04-15, 07:17:04,VALID,918.385,VALID,0,VALID,96.5811,VALID,141.178,VALID,19.8003,VALID,136,VALID,0.554688,
2014-04-15, 07:18:04,VALID,918.383,VALID,0,VALID,96.5734,VALID,143.971,VALID,19.8603,VALID,144,VALID,0.937109,
2014-04-15, 07:19:04,VALID,918.385,VALID,0,VALID,96.5506,VALID,147.409,VALID,19.9173,VALID,143,VALID,0.663672,
2014-04-15, 07:20:04,VALID,918.401,VALID,0,VALID,96.5048,VALID,150.632,VALID,19.9578,VALID,131,VALID,1.00742,
2014-04-15, 07:21:04,VALID,918.42,VALID,0,VALID,96.4667,VALID,154.285,VALID,20.0163,VALID,136,VALID,0.582812,
2014-04-15, 07:22:04,VALID,918.404,VALID,0,VALID,96.4286,VALID,157.509,VALID,20.1139,VALID,134,VALID,0.531641,
2014-04-15, 07:23:04,VALID,918.409,VALID,0,VALID,96.3829,VALID,161.054,VALID,20.1529,VALID,125,VALID,0.557031,
2014-04-15, 07:24:04,VALID,918.435,VALID,0,VALID,96.3447,VALID,165.03,VALID,20.2504,VALID,125,VALID,0.360938,
2014-04-15, 07:25:04,VALID,918.426,VALID,0,VALID,96.2914,VALID,168.468,VALID,20.3869,VALID,125,VALID,0.159375,
2014-04-15, 07:26:04,VALID,918.441,VALID,0,VALID,96.2456,VALID,172.121,VALID,20.543,VALID,125,VALID,0.0636719,
2014-04-15, 07:27:04,VALID,918.436,VALID,0,VALID,96.1618,VALID,175.666,VALID,20.5414,VALID,145,VALID,0.587891,
2014-04-15, 07:28:04,VALID,918.443,VALID,0,VALID,96.0322,VALID,178.997,VALID,20.6405,VALID,145,VALID,0.512891,
2014-04-15, 07:29:04,VALID,918.505,VALID,0,VALID,95.9102,VALID,182.113,VALID,20.7576,VALID,145,VALID,0.0351563,
2014-04-15, 07:30:04,VALID,918.497,VALID,0,VALID,95.7425,VALID,185.336,VALID,20.795,VALID,145,VALID,0.418359,
2014-04-15, 07:31:04,VALID,918.501,VALID,0,VALID,95.4375,VALID,188.774,VALID,20.8535,VALID,145,VALID,0.291016,
2014-04-15, 07:32:04,VALID,918.551,VALID,0,VALID,94.9954,VALID,191.997,VALID,20.8925,VALID,145,VALID,0.342578,
2014-04-15, 07:33:04,VALID,918.597,VALID,0,VALID,94.6066,VALID,195.543,VALID,20.9901,VALID,145,VALID,0.0046875,
2014-04-15, 07:34:04,VALID,918.612,VALID,0,VALID,93.5469,VALID,198.981,VALID,21.0486,VALID,145,VALID,0.350391,
2014-04-15, 07:35:04,VALID,918.631,VALID,0,VALID,92.1747,VALID,202.097,VALID,21.0681,VALID,145,VALID,0.240234,
2014-04-15, 07:36:04,VALID,918.637,VALID,0,VALID,91.5115,VALID,205.642,VALID,21.1852,VALID,145,VALID,0.251953,
2014-04-15, 07:37:04,VALID,918.65,VALID,0,VALID,90.4747,VALID,208.328,VALID,21.2632,VALID,149,VALID,0.720312,
2014-04-15, 07:38:04,VALID,918.607,VALID,0,VALID,89.6209,VALID,208.758,VALID,21.3624,VALID,150,VALID,0.194531,
2014-04-15, 07:39:04,VALID,918.639,VALID,0,VALID,88.8128,VALID,215.42,VALID,21.4957,VALID,150,VALID,0.300391,
2014-04-15, 07:40:04,VALID,918.611,VALID,0,VALID,87.4863,VALID,218.858,VALID,21.4973,VALID,128,VALID,0.685938,
2014-04-15, 07:41:04,VALID,918.622,VALID,0,VALID,87.4482,VALID,222.94,VALID,21.5542,VALID,125,VALID,0.648828,
2014-04-15, 07:42:04,VALID,918.629,VALID,0,VALID,87.4863,VALID,225.734,VALID,21.6144,VALID,135,VALID,0.250781,
2014-04-15, 07:43:04,VALID,918.682,VALID,0,VALID,87.2881,VALID,229.924,VALID,21.6729,VALID,128,VALID,0.435156,
2014-04-15, 07:44:04,VALID,918.711,VALID,0,VALID,86.785,VALID,233.577,VALID,21.6908,VALID,138,VALID,0.869141,
2014-04-15, 07:45:04,VALID,918.715,VALID,0,VALID,86.8688,VALID,236.263,VALID,21.6713,VALID,150,VALID,0.473437,
2014-04-15, 07:46:04,VALID,918.755,VALID,0,VALID,86.137,VALID,240.024,VALID,21.6908,VALID,140,VALID,1.12383,
2014-04-15, 07:47:04,VALID,918.789,VALID,0,VALID,86.0379,VALID,243.032,VALID,21.6339,VALID,117,VALID,0.604688,
2014-04-15, 07:48:04,VALID,918.837,VALID,0,VALID,86.9756,VALID,243.569,VALID,21.6729,VALID,149,VALID,0.584375,
2014-04-15, 07:49:04,VALID,918.871,VALID,0,VALID,86.2666,VALID,251.09,VALID,21.6924,VALID,159,VALID,0.877344,
2014-04-15, 07:50:04,VALID,918.898,VALID,0,VALID,86.4953,VALID,259.47,VALID,21.6924,VALID,118,VALID,0.913672,
2014-04-15, 07:51:04,VALID,918.929,VALID,0,VALID,86.48,VALID,244.644,VALID,21.6729,VALID,147,VALID,0.973437,
2014-04-15, 07:52:04,VALID,918.949,VALID,0,VALID,86.3276,VALID,266.991,VALID,21.6729,VALID,147,VALID,1.14414,
2014-04-15, 07:53:04,VALID,918.998,VALID,0,VALID,85.9998,VALID,254.098,VALID,21.5754,VALID,148,VALID,1.08555,
2014-04-15, 07:54:04,VALID,918.962,VALID,0,VALID,86.5182,VALID,240.776,VALID,21.5168,VALID,149,VALID,0.799609,
2014-04-15, 07:55:04,VALID,918.987,VALID,0,VALID,87.5016,VALID,118.83,VALID,21.4957,VALID,153,VALID,0.405469,
2014-04-15, 07:56:04,VALID,918.985,VALID,0,VALID,87.3186,VALID,197.369,VALID,21.4372,VALID,156,VALID,0.8875,
2014-04-15, 07:57:04,VALID,919.022,VALID,0,VALID,87.6388,VALID,283.645,VALID,21.4177,VALID,158,VALID,1.02891,
2014-04-15, 07:58:04,VALID,919.017,VALID,0,VALID,88.0733,VALID,291.166,VALID,21.3981,VALID,160,VALID,1.04375,
2014-04-15, 07:59:04,VALID,919.053,VALID,0,VALID,88.5688,VALID,287.298,VALID,21.4388,VALID,160,VALID,0.442578,
2014-04-15, 08:00:04,VALID,919.089,VALID,0,VALID,89.4074,VALID,291.488,VALID,21.5737,VALID,160,VALID,0.249219,
2014-04-15, 08:01:04,VALID,919.152,VALID,0,VALID,88.6527,VALID,294.496,VALID,21.7103,VALID,148,VALID,1.07305,
2014-04-15, 08:02:04,VALID,919.186,VALID,0,VALID,87.9209,VALID,298.472,VALID,21.7883,VALID,149,VALID,0.599219,
2014-04-15, 08:03:04,VALID,919.232,VALID,0,VALID,86.8536,VALID,301.802,VALID,21.8469,VALID,157,VALID,1.40937,
2014-04-15, 08:04:04,VALID,919.262,VALID,0,VALID,86.0607,VALID,305.348,VALID,21.7688,VALID,165,VALID,1.20313,
2014-04-15, 08:05:04,VALID,919.254,VALID,0,VALID,86.5563,VALID,308.678,VALID,21.7298,VALID,145,VALID,0.723828,
2014-04-15, 08:06:04,VALID,919.281,VALID,0,VALID,87.0747,VALID,313.084,VALID,21.8274,VALID,131,VALID,0.959375,
2014-04-15, 08:07:04,VALID,919.295,VALID,0,VALID,86.8917,VALID,317.489,VALID,21.964,VALID,106,VALID,0.817969,
2014-04-15, 08:08:04,VALID,919.291,VALID,0,VALID,86.3733,VALID,319.745,VALID,21.9835,VALID,141,VALID,1.13555,
2014-04-15, 08:09:04,VALID,919.264,VALID,0,VALID,86.1903,VALID,321.786,VALID,22.0013,VALID,132,VALID,0.870313,
2014-04-15, 08:10:04,VALID,919.302,VALID,0,VALID,86.0989,VALID,323.828,VALID,22.1005,VALID,130,VALID,0.89375,
2014-04-15, 08:11:04,VALID,919.298,VALID,0,VALID,84.7266,VALID,326.191,VALID,22.1201,VALID,136,VALID,0.703125,
2014-04-15, 08:12:04,VALID,919.317,VALID,0,VALID,84.376,VALID,328.125,VALID,22.1786,VALID,167,VALID,0.699219,
2014-04-15, 08:13:04,VALID,919.356,VALID,0,VALID,84.5437,VALID,334.142,VALID,22.3152,VALID,159,VALID,0.504687,
2014-04-15, 08:14:04,VALID,919.339,VALID,0,VALID,83.423,VALID,339.944,VALID,22.4306,VALID,135,VALID,0.827734,
2014-04-15, 08:15:04,VALID,919.358,VALID,0,VALID,82.2185,VALID,345.853,VALID,22.5477,VALID,135,VALID,0.425391,
2014-04-15, 08:16:04,VALID,919.372,VALID,0,VALID,83.2782,VALID,347.68,VALID,22.7818,VALID,72,VALID,0.915625,
2014-04-15, 08:17:04,VALID,919.368,VALID,0,VALID,80.7625,VALID,352.514,VALID,22.8989,VALID,72,VALID,0.629297,
2014-04-15, 08:18:04,VALID,919.374,VALID,0,VALID,80.9149,VALID,358.424,VALID,23.0551,VALID,70,VALID,0.901172,
2014-04-15, 08:19:04,VALID,919.365,VALID,0,VALID,80.2517,VALID,359.928,VALID,23.252,VALID,83,VALID,0.386719,
2014-04-15, 08:20:04,VALID,919.402,VALID,0,VALID,78.4754,VALID,361.11,VALID,23.3869,VALID,99,VALID,0.681641,
2014-04-15, 08:21:04,VALID,919.375,VALID,0,VALID,77.8656,VALID,366.267,VALID,23.2502,VALID,136,VALID,1.09687,
2014-04-15, 08:22:04,VALID,919.4,VALID,0,VALID,80.3584,VALID,366.912,VALID,23.1527,VALID,101,VALID,1.49375,
2014-04-15, 08:23:04,VALID,919.409,VALID,0,VALID,80.6862,VALID,373.465,VALID,23.0959,VALID,122,VALID,1.08438,
2014-04-15, 08:24:04,VALID,919.441,VALID,0,VALID,82.028,VALID,378.193,VALID,23.0568,VALID,123,VALID,1.02227,
2014-04-15, 08:25:04,VALID,919.423,VALID,0,VALID,82.5921,VALID,382.061,VALID,22.8794,VALID,135,VALID,1.7043,
2014-04-15, 08:26:04,VALID,919.418,VALID,0,VALID,84.0405,VALID,385.606,VALID,22.9202,VALID,87,VALID,0.960547,
2014-04-15, 08:27:04,VALID,919.436,VALID,0,VALID,84.5818,VALID,389.474,VALID,23.1154,VALID,66,VALID,1.11875,
2014-04-15, 08:28:04,VALID,919.458,VALID,0,VALID,82.6759,VALID,390.763,VALID,23.252,VALID,103,VALID,0.828906,
2014-04-15, 08:29:04,VALID,919.436,VALID,0,VALID,83.3087,VALID,394.631,VALID,23.252,VALID,99,VALID,1.49219,
2014-04-15, 08:30:04,VALID,919.418,VALID,0,VALID,80.6939,VALID,400.541,VALID,23.213,VALID,107,VALID,0.948828,
2014-04-15, 08:31:04,VALID,919.422,VALID,0,VALID,80.3661,VALID,404.301,VALID,23.213,VALID,120,VALID,0.516016,
2014-04-15, 08:32:04,VALID,919.467,VALID,0,VALID,81.5705,VALID,408.706,VALID,23.2893,VALID,120,VALID,0.306641,
2014-04-15, 08:33:04,VALID,919.464,VALID,0,VALID,82.3863,VALID,411.929,VALID,23.4259,VALID,65,VALID,1.00469,
2014-04-15, 08:34:04,VALID,919.487,VALID,0,VALID,80.0764,VALID,415.26,VALID,23.6229,VALID,87,VALID,0.777344,
2014-04-15, 08:35:04,VALID,919.553,VALID,0,VALID,79.5351,VALID,417.731,VALID,23.701,VALID,91,VALID,0.291406,
2014-04-15, 08:36:04,VALID,919.576,VALID,0,VALID,78.727,VALID,422.351,VALID,23.8749,VALID,61,VALID,1.20391,
2014-04-15, 08:37:04,VALID,919.606,VALID,0,VALID,78.6737,VALID,426.004,VALID,23.9139,VALID,61,VALID,1.0375,
2014-04-15, 08:38:04,VALID,919.661,VALID,0,VALID,78.2849,VALID,427.938,VALID,23.9939,VALID,41,VALID,1.53281,
2014-04-15, 08:39:04,VALID,919.684,VALID,0,VALID,78.5288,VALID,430.946,VALID,23.9335,VALID,13,VALID,1.24922,
2014-04-15, 08:40:04,VALID,919.71,VALID,0,VALID,77.6216,VALID,433.847,VALID,23.9335,VALID,39,VALID,0.391016,
2014-04-15, 08:41:04,VALID,919.745,VALID,0,VALID,78.14,VALID,436.104,VALID,24.1092,VALID,32,VALID,1.34844,
2014-04-15, 08:42:04,VALID,919.727,VALID,0,VALID,76.4324,VALID,439.112,VALID,24.1854,VALID,21,VALID,0.748047,
2014-04-15, 08:43:04,VALID,919.749,VALID,0,VALID,75.8835,VALID,445.344,VALID,24.3044,VALID,38,VALID,0.591797,
2014-04-15, 08:44:04,VALID,919.767,VALID,0,VALID,73.1848,VALID,424.715,VALID,24.4002,VALID,30,VALID,1.58945,
2014-04-15, 08:45:04,VALID,919.796,VALID,0,VALID,74.9611,VALID,441.046,VALID,24.2654,VALID,20,VALID,0.775,
2014-04-15, 08:46:04,VALID,919.812,VALID,0,VALID,77.736,VALID,410.21,VALID,24.2849,VALID,33,VALID,1.16914,
2014-04-15, 08:47:04,VALID,919.859,VALID,0,VALID,76.3409,VALID,417.516,VALID,24.3611,VALID,305,VALID,1.15273,
2014-04-15, 08:48:04,VALID,919.905,VALID,0,VALID,75.8606,VALID,393.987,VALID,24.0292,VALID,289,VALID,1.29102,
2014-04-15, 08:49:04,VALID,919.935,VALID,0,VALID,77.8884,VALID,386.681,VALID,23.8145,VALID,309,VALID,0.770312,
2014-04-15, 08:50:04,VALID,919.969,VALID,0,VALID,78.5974,VALID,356.812,VALID,23.756,VALID,330,VALID,0.902344,
2014-04-15, 08:51:04,VALID,919.986,VALID,0,VALID,76.8364,VALID,355.523,VALID,23.7968,VALID,25,VALID,1.47812,
2014-04-15, 08:52:04,VALID,920.017,VALID,0,VALID,78.5745,VALID,357.994,VALID,23.8358,VALID,13,VALID,1.46563,
2014-04-15, 08:53:04,VALID,920.015,VALID,0,VALID,78.3306,VALID,354.233,VALID,23.9121,VALID,25,VALID,0.653125,
2014-04-15, 08:54:04,VALID,920.046,VALID,0,VALID,76.8135,VALID,354.019,VALID,24.0506,VALID,357,VALID,0.644922,
2014-04-15, 08:55:04,VALID,920.076,VALID,0,VALID,76.318,VALID,353.052,VALID,24.1092,VALID,357,VALID,0.421875,
2014-04-15, 08:56:04,VALID,920.096,VALID,0,VALID,76.8821,VALID,349.936,VALID,24.1873,VALID,357,VALID,0.269141,
2014-04-15, 08:57:04,VALID,920.11,VALID,0,VALID,76.501,VALID,344.349,VALID,24.1659,VALID,10,VALID,1.22969,
2014-04-15, 08:58:04,VALID,920.149,VALID,0,VALID,78.3611,VALID,340.159,VALID,24.1092,VALID,12,VALID,0.234375,
2014-04-15, 08:59:04,VALID,920.099,VALID,0,VALID,79.2912,VALID,341.555,VALID,24.1092,VALID,355,VALID,0,
2014-04-15, 09:00:04,VALID,920.113,VALID,0,VALID,78.5212,VALID,342.737,VALID,24.1677,VALID,355,VALID,0.00195313,
2014-04-15, 09:01:04,VALID,920.159,VALID,0,VALID,78.262,VALID,346.713,VALID,24.283,VALID,355,VALID,0.359375,
2014-04-15, 09:02:04,VALID,920.132,VALID,0,VALID,77.492,VALID,358.961,VALID,24.3825,VALID,357,VALID,0.360938,
2014-04-15, 09:03:04,VALID,920.143,VALID,0,VALID,76.2037,VALID,414.401,VALID,24.4587,VALID,8,VALID,0.660937,
2014-04-15, 09:04:04,VALID,920.142,VALID,0,VALID,76.0436,VALID,459.956,VALID,24.5778,VALID,6,VALID,0.484766,
2014-04-15, 09:05:04,VALID,920.123,VALID,0,VALID,76.0055,VALID,602.208,VALID,24.7144,VALID,4,VALID,1.05742,
2014-04-15, 09:06:04,VALID,920.13,VALID,0,VALID,76.6306,VALID,525.71,VALID,24.8707,VALID,2,VALID,0.906641,
2014-04-15, 09:07:04,VALID,920.168,VALID,0,VALID,73.0704,VALID,487.353,VALID,24.8902,VALID,355,VALID,1.01289,
2014-04-15, 09:08:04,VALID,920.163,VALID,0,VALID,75.2584,VALID,502.825,VALID,24.9078,VALID,21,VALID,0.451562,
2014-04-15, 09:09:04,VALID,920.159,VALID,0,VALID,72.8722,VALID,641.746,VALID,25.0074,VALID,342,VALID,0.903906,
2014-04-15, 09:10:04,VALID,920.161,VALID,0,VALID,74.3969,VALID,633.688,VALID,24.9878,VALID,340,VALID,0.370703,
2014-04-15, 09:11:04,VALID,920.186,VALID,0,VALID,71.5686,VALID,631.539,VALID,25.105,VALID,340,VALID,0.139844,
2014-04-15, 09:12:04,VALID,920.195,VALID,0,VALID,72.1861,VALID,610.695,VALID,25.3394,VALID,344,VALID,0.825781,
2014-04-15, 09:13:04,VALID,920.165,VALID,0,VALID,68.5803,VALID,569.653,VALID,25.4351,VALID,3,VALID,2.59063,
2014-04-15, 09:14:04,VALID,920.188,VALID,0,VALID,70.913,VALID,499.601,VALID,25.1422,VALID,343,VALID,1.41836,
2014-04-15, 09:15:04,VALID,920.183,VALID,0,VALID,71.5,VALID,475.32,VALID,24.9664,VALID,348,VALID,0.897266,
2014-04-15, 09:16:04,VALID,920.161,VALID,0,VALID,74.2063,VALID,589.637,VALID,24.8883,VALID,12,VALID,2.50664,
2014-04-15, 09:17:04,VALID,920.153,VALID,0,VALID,73.261,VALID,576.852,VALID,24.8902,VALID,336,VALID,0.5875,
2014-04-15, 09:18:04,VALID,920.178,VALID,0,VALID,73.2229,VALID,571.05,VALID,24.9859,VALID,336,VALID,0.0953125,
2014-04-15, 09:19:04,VALID,920.142,VALID,0,VALID,72.9332,VALID,507.767,VALID,25.2398,VALID,343,VALID,0.439844,
2014-04-15, 09:20:04,VALID,920.128,VALID,0,VALID,72.1251,VALID,584.802,VALID,25.4761,VALID,23,VALID,1.18164,
2014-04-15, 09:21:04,VALID,920.143,VALID,0,VALID,70.7377,VALID,581.149,VALID,25.5151,VALID,352,VALID,0.773047,
2014-04-15, 09:22:04,VALID,920.153,VALID,0,VALID,71.1036,VALID,585.232,VALID,25.4331,VALID,338,VALID,0.264844,
2014-04-15, 09:23:04,VALID,920.172,VALID,0,VALID,70.5852,VALID,590.711,VALID,25.6499,VALID,338,VALID,0.227344,
2014-04-15, 09:24:04,VALID,920.173,VALID,0,VALID,66.987,VALID,533.66,VALID,25.6499,VALID,338,VALID,0.847266,
2014-04-15, 09:25:04,VALID,920.137,VALID,0,VALID,68.3592,VALID,448.244,VALID,25.4937,VALID,338,VALID,1.2125,
2014-04-15, 09:26:04,VALID,920.173,VALID,0,VALID,70.6005,VALID,306.959,VALID,25.2203,VALID,338,VALID,0.819141,
2014-04-15, 09:27:04,VALID,920.188,VALID,0,VALID,72.0032,VALID,298.149,VALID,25.0621,VALID,334,VALID,0.848828,
2014-04-15, 09:28:04,VALID,920.186,VALID,0,VALID,70.5928,VALID,622.299,VALID,24.8492,VALID,295,VALID,1.36289,
2014-04-15, 09:29:04,VALID,920.165,VALID,0,VALID,71.4238,VALID,643.143,VALID,24.4978,VALID,282,VALID,1.04688,
2014-04-15, 09:30:04,VALID,920.204,VALID,0,VALID,72.918,VALID,512.709,VALID,24.4587,VALID,304,VALID,1.66094,
2014-04-15, 09:31:04,VALID,920.209,VALID,0,VALID,73.4669,VALID,224.337,VALID,24.3806,VALID,303,VALID,0.273047,
2014-04-15, 09:32:04,VALID,920.217,VALID,0,VALID,73.261,VALID,262.586,VALID,24.283,VALID,298,VALID,1.43711,
2014-04-15, 09:33:04,VALID,920.221,VALID,0,VALID,74.3131,VALID,197.155,VALID,24.1269,VALID,327,VALID,0.944531,
2014-04-15, 09:34:04,VALID,920.23,VALID,0,VALID,75.5176,VALID,315.77,VALID,24.0683,VALID,345,VALID,1.15508,
2014-04-15, 09:35:04,VALID,920.233,VALID,0,VALID,73.1086,VALID,555.793,VALID,24.0488,VALID,299,VALID,1.3125,
2014-04-15, 09:36:04,VALID,920.217,VALID,0,VALID,75.266,VALID,335.324,VALID,24.0292,VALID,337,VALID,0.597656,
2014-04-15, 09:37:04,VALID,920.222,VALID,0,VALID,76.318,VALID,639.919,VALID,24.1269,VALID,289,VALID,0.226563,
2014-04-15, 09:38:04,VALID,920.221,VALID,0,VALID,74.1987,VALID,289.769,VALID,24.3221,VALID,360,VALID,1.80547,
2014-04-15, 09:39:04,VALID,920.205,VALID,0,VALID,75.0068,VALID,510.345,VALID,24.4197,VALID,1,VALID,1.38359,
2014-04-15, 09:40:04,VALID,920.185,VALID,0,VALID,74.5494,VALID,273.008,VALID,24.4783,VALID,1,VALID,1.55508,
2014-04-15, 09:41:04,VALID,920.211,VALID,0,VALID,72.5063,VALID,284.397,VALID,24.3806,VALID,313,VALID,1.54219,
2014-04-15, 09:42:04,VALID,920.206,VALID,0,VALID,74.679,VALID,349.721,VALID,24.2617,VALID,329,VALID,0.350781,
2014-04-15, 09:43:04,VALID,920.211,VALID,0,VALID,74.8238,VALID,800.759,VALID,24.2421,VALID,305,VALID,0.977344,
2014-04-15, 09:44:04,VALID,920.188,VALID,0,VALID,74.1301,VALID,773.684,VALID,24.4002,VALID,315,VALID,1.31719,
2014-04-15, 09:45:04,VALID,920.177,VALID,0,VALID,76.2647,VALID,590.711,VALID,24.5368,VALID,346,VALID,1.34805,
2014-04-15, 09:46:04,VALID,920.151,VALID,0,VALID,71.9269,VALID,217.676,VALID,24.7516,VALID,332,VALID,0.896484,
2014-04-15, 09:47:04,VALID,920.159,VALID,0,VALID,74.2216,VALID,722.219,VALID,24.7107,VALID,353,VALID,0.894141,
2014-04-15, 09:48:04,VALID,920.141,VALID,0,VALID,74.0462,VALID,433.418,VALID,24.7302,VALID,352,VALID,1.45508,
2014-04-15, 09:49:04,VALID,920.151,VALID,0,VALID,73.8709,VALID,647.763,VALID,24.7693,VALID,348,VALID,0.379687,
2014-04-15, 09:50:04,VALID,920.142,VALID,0,VALID,72.5444,VALID,724.476,VALID,24.8297,VALID,311,VALID,0.382422,
2014-04-15, 09:51:04,VALID,920.115,VALID,0,VALID,72.7198,VALID,499.601,VALID,24.9664,VALID,311,VALID,0.148438,
2014-04-15, 09:52:04,VALID,920.078,VALID,0,VALID,71.2332,VALID,736.509,VALID,25.2007,VALID,311,VALID,0.135547,
2014-04-15, 09:53:04,VALID,920.045,VALID,0,VALID,69.7695,VALID,713.194,VALID,25.316,VALID,310,VALID,0.992969,
2014-04-15, 09:54:04,VALID,920.049,VALID,0,VALID,70.852,VALID,699.979,VALID,25.3765,VALID,311,VALID,0.308203,
2014-04-15, 09:55:04,VALID,920.053,VALID,0,VALID,71.1875,VALID,707.07,VALID,25.5503,VALID,357,VALID,1.04922,
2014-04-15, 09:56:04,VALID,920.025,VALID,0,VALID,69.1673,VALID,728.988,VALID,25.648,VALID,336,VALID,0.751172,
2014-04-15, 09:57:04,VALID,919.967,VALID,0,VALID,69.2511,VALID,660.763,VALID,25.7066,VALID,336,VALID,0.208203,
2014-04-15, 09:58:04,VALID,920.012,VALID,0,VALID,69.5789,VALID,414.186,VALID,25.7456,VALID,337,VALID,0.347266,
2014-04-15, 09:59:04,VALID,919.993,VALID,0,VALID,68.7861,VALID,764.229,VALID,25.6655,VALID,314,VALID,1.05781,
2014-04-15, 10:00:04,VALID,919.99,VALID,0,VALID,69.0072,VALID,768.956,VALID,25.6109,VALID,310,VALID,0.656641,
2014-04-15, 10:01:04,VALID,919.964,VALID,0,VALID,71.5458,VALID,781.742,VALID,25.7046,VALID,310,VALID,0.230859,
2014-04-15, 10:02:04,VALID,919.946,VALID,0,VALID,70.9511,VALID,791.411,VALID,26.0171,VALID,356,VALID,0.408984,
2014-04-15, 10:03:04,VALID,919.931,VALID,0,VALID,66.9488,VALID,546.123,VALID,26.1147,VALID,328,VALID,0.223438,
2014-04-15, 10:04:04,VALID,919.877,VALID,0,VALID,68.626,VALID,576.207,VALID,26.0757,VALID,325,VALID,1.40937,
2014-04-15, 10:05:04,VALID,919.872,VALID,0,VALID,68.8547,VALID,725.335,VALID,25.7632,VALID,313,VALID,1.11875,
2014-04-15, 10:06:04,VALID,919.849,VALID,0,VALID,71.4009,VALID,710.401,VALID,25.5113,VALID,328,VALID,0.257813,
2014-04-15, 10:07:04,VALID,919.828,VALID,0,VALID,69.9296,VALID,713.946,VALID,25.4703,VALID,288,VALID,1.48398,
2014-04-15, 10:08:04,VALID,919.782,VALID,0,VALID,71.4314,VALID,569.546,VALID,25.2984,VALID,261,VALID,0.791016,
2014-04-15, 10:09:04,VALID,919.772,VALID,0,VALID,70.8139,VALID,692.351,VALID,25.3336,VALID,252,VALID,1.13047,
2014-04-15, 10:10:04,VALID,919.754,VALID,0,VALID,71.5839,VALID,723.294,VALID,25.236,VALID,248,VALID,0.353516,
2014-04-15, 10:11:04,VALID,919.743,VALID,0,VALID,73.3449,VALID,728.344,VALID,25.4117,VALID,251,VALID,0.563672,